Regional Weather Roundup
Issued by NWS Goodland, KS

Home | Current Version | Previous Version | Graphics & Text | Print | Product List | Glossary On
Versions: 1 2 3 4 5 6 7 8 9 10 11 12 13 14 15 16 17 18 19 20 21 22 23 24 25 26 27 28 29 30 31 32 33 34 35 36 37 38 39 40 41 42 43 44 45 46 47 48 49 50
000
ASUS43 KGLD 271808
RWRGLD

GOODLAND FORECAST AREA HOURLY WEATHER ROUNDUP
NATIONAL WEATHER SERVICE GOODLAND KS
1200 PM MDT WED MAY 27 2015

...OFFICIAL OBSERVATIONS...

CITY           SKY/WX    TMP DP  RH WIND       PRES   REMARKS
GOODLAND KS    MOSUNNY   74  59  59 S18       30.07F
HILL CITY KS   PTSUNNY   71  58  63 VRB6      30.11R
IMPERIAL NEB   PTSUNNY   70  57  63 S18G26    30.06F
MCCOOK NEB     LGT RAIN  67  57  70 SE6       30.08F
AKRON CO       SUNNY     72  49  44 W3        30.06F
BURLINGTON CO  MOSUNNY   73  55  53 S16       30.08F
LIMON CO         N/A    N/A N/A N/A MISG      30.09F
$$

...UNOFFICIAL OBSERVATIONS...

CITY           SKY/WX    TMP DP  RH WIND       PRES   REMARKS
COLBY KS       MOSUNNY   75  63  64 SE16G22   30.09F
GOVE KS          N/A     71  32  23 MISG        N/A
LENORA KS        N/A     70  32  24 MISG        N/A
NORTON KS      DRIZZLE   68  54  60 SE7       30.09
SHARON SPRINGS   N/A     75  60  60 MISG        N/A
KIT CARSON CO    N/A     72  58  60 MISG        N/A
$$


USA.gov is the U.S. government's official web portal to all federal, state and local government web resources and services.